Regional Weather Roundup
Issued by NWS

Home | Current Version | Previous Version | Text Only | Print | Product List | Glossary On
Versions: 1 2 3 4 5 6 7 8 9 10 11 12 13 14 15 16 17 18 19 20 21 22 23 24 25 26 27 28 29 30 31 32 33 34 35 36 37 38 39 40 41 42 43 44 45 46 47 48 49 50
000
ASUS44 KMEG 221610
RWRTN
TENNESSEE HOURLY STATE WEATHER ROUNDUP
NATIONAL WEATHER SERVICE MEMPHIS TN
1100 AM CDT TUE JUL 22 2014

TNZ002-004-019-021-049-052-054-088>092-221700-
WEST TENNESSEE

CITY           SKY/WX    TMP DP  RH WIND       PRES   REMARKS
MEMPHIS INTL   MOSUNNY   86  68  54 CALM      30.09S
NWS MEMPHIS      N/A     85 N/A N/A MISG        N/A
JACKSON        SUNNY     85  70  60 NE3       30.09S
DYERSBURG      SUNNY     82  64  54 CALM      30.09S
UNION CITY     SUNNY     84  70  61 CALM      30.08R
PARIS          SUNNY     85  71  62 CALM      30.10R HX  90
LEXINGTON      MOSUNNY   84  73  70 CALM      30.09R HX  91
SAVANNAH       PTSUNNY   86  77  74 CALM      30.09F HX  97
$$

TNZ008-025-027-028-033-062-065-066-221700-
NORTH MIDDLE TENNESSEE

CITY           SKY/WX    TMP DP  RH WIND       PRES   REMARKS
NASHVILLE      PTSUNNY   85  71  63 S6        30.11F HX  90
DICKSON        MOSUNNY   81  72  74 SE5       30.11S
PORTLAND       SUNNY     84  72  65 S7        30.11S
CLARKSVILLE    SUNNY     86  71  60 SE5       30.09S HX  91
LEBANON        MOSUNNY   85  71  62 SE6       30.11S HX  90
SMYRNA         MOSUNNY   89  72  57 S8        30.12F HX  96
MURFREESBORO   MOSUNNY   84  71  65 S6        30.11F
COOKEVILLE     SUNNY     84  73  70 CALM      30.14F HX  91
LIVINGSTON     MOSUNNY   82  68  62 SW6       30.16F
GALLATIN       MOSUNNY   86  73  64 S7        30.12F HX  93
CROSSVILLE     SUNNY     80  64  58 SE6       30.19F
$$

TNZ061-075-076-078-094-096-097-221700-
SOUTH MIDDLE TENNESSEE

CITY           SKY/WX    TMP DP  RH WIND       PRES   REMARKS
LEWISBURG      PTSUNNY   83  71  66 S6        30.11F
FAYETTEVILLE   PTSUNNY   81  70  69 S9        30.13F
TULLAHOMA      MOSUNNY   81  70  69 S5        30.15F
WINCHESTER     MOSUNNY   81  72  74 VRB5      30.14F
MCMINNVILLE    MOSUNNY   84  73  70 S3        30.14F HX  91
COLUMBIA       MOSUNNY   84  73  70 VRB5      30.10F HX  91
$$

TNZ017-018-042-046-047-221700-
NORTHEAST TENNESSEE

CITY           SKY/WX    TMP DP  RH WIND       PRES   REMARKS
TRI CITIES     MOSUNNY   82  66  58 CALM      30.18F
ELIZABETHTON   SUNNY     81  64  57 E5        30.18F
$$

TNZ012-013-036-069-073-074-221700-
CENTRAL EAST TENNESSEE

CITY           SKY/WX    TMP DP  RH WIND       PRES   REMARKS
KNOXVILLE      CLOUDY    81  68  64 CALM      30.14F
OAK RIDGE      MOSUNNY   83  69  62 CALM      30.15F
GATLINBURG     MOSUNNY   82  70  65 CALM      30.14F
MORRISTOWN       N/A     81  70  69 SE3       30.17F
$$

TNZ083-085-099-221700-
SOUTHEAST TENNESSEE

CITY           SKY/WX    TMP DP  RH WIND       PRES   REMARKS
CHATTANOOGA    PTSUNNY   81  67  62 SE6       30.14F
$$

SKY/WX REPORTED AS FAIR MEANS FEW OR NO CLOUDS BELOW
12 THOUSAND FEET.



USA.gov is the U.S. government's official web portal to all federal, state and local government web resources and services.